Regional Weather Roundup
Issued by NWS Midland/Odessa, TX

Skip options and go directly to product.
Home | Oldest Version | Next Version | Current Version | All | Text Only | Save Text | Print | Product List | Glossary On

Skip product version selection by date and time.   
871
ASUS44 KMAF 311510
RWRMAF
MIDLAND AREA WEATHER ROUNDUP
NATIONAL WEATHER SERVICE MIDLAND TX
1000 AM CDT MON AUG 31 2015

...IN SOUTHWEST TEXAS AND SOUTHEAST NEW MEXICO...

CITY           SKY/WX    TMP DP  RH WIND       PRES   REMARKS
ALPINE         SUNNY     78  49  36 SW7       30.20R
ANDREWS        FAIR      75  58  56 S9        30.09F
ARTESIA        SUNNY     72  55  56 SE14      30.09S
BIG SPRING     SUNNY     75  62  63 S12       30.10R
CARLSBAD       MOSUNNY   74  55  51 SE12      30.06F
DRYDEN           N/A     77  64  64 S7        30.04R
FORT STOCKTON  SUNNY     76  57  51 S10       30.07S
GUAD PASS      SUNNY     71  48  43 SW3       30.21R
HOBBS          SUNNY     72  59  64 S13       30.11F
MARFA          SUNNY     72  52  49 CALM      30.19R
MIDLAND AIRPK  SUNNY     77  59  53 S12       30.09S
MIDLAND INTL   SUNNY     77  60  55 S13       30.08R
ODESSA         SUNNY     77  58  51 S10       30.09R
PECOS          SUNNY     72  56  56 E5        30.05S
PRESIDIO       NOT AVBL
SEMINOLE       SUNNY     75  57  53 S10       30.11S
SNYDER         SUNNY     74  61  63 S10       30.08S
WINK           SUNNY     76  59  55 SE13      30.05S
$$
...OTHER STATIONS IN TEXAS...

CITY           SKY/WX    TMP DP  RH WIND       PRES   REMARKS
ABILENE        SUNNY     78  64  61 S12       30.06S
AMARILLO       SUNNY     75  55  49 S21       30.07S
AUSTIN         MOSUNNY   82  72  71 S7        30.03S
BROWNSVILLE    MOSUNNY   83  77  82 S10       29.96S
CORPUS CHRISTI PTSUNNY   87  74  64 SE9       29.98F
DALLAS FTW     MOSUNNY   82  67  60 S5        30.03R
DEL RIO        SUNNY     80  70  71 SE9       30.00R
EL PASO        SUNNY     77  50  38 SE6       30.09S
HOUSTON INT    MOSUNNY   85  74  69 NE3       30.04S
LUBBOCK        MOSUNNY   75  58  55 S13       30.09S
SAN ANGELO     SUNNY     78  67  68 S7        30.06S
SAN ANTONIO    PTSUNNY   82  71  69 S9        30.04S
WACO           SUNNY     81  70  69 SW6       30.05R
WICHITA FALLS  NOT AVBL
$$
...OTHER LOCATIONS IN NEW MEXICO...

CITY           SKY/WX    TMP DP  RH WIND       PRES   REMARKS
ALAMAGORDO     SUNNY     73  48  40 CALM      30.12F
ALBUQUERQUE    MOSUNNY   74  49  41 CALM      30.21S
CANNON AFB     SUNNY     73  53  50 S9        30.11S
CLOVIS         SUNNY     73  52  46 S14       30.12S
HOLLOMAN AFB   SUNNY     74  48  38 S2        30.09F
ROSWELL        MOSUNNY   74  55  51 S14       30.08S
RUIDOSO        SUNNY     70  50  49 MISG      30.29S
SANTA FE       SUNNY     73  46  38 N7        30.25R
TRUTH OR CONSE SUNNY     78  51  38 W7        30.14S
TUCUMCARI      SUNNY     77  51  40 SW16      30.05R
$$

USA.gov is the U.S. government's official web portal to all federal, state and local government web resources and services.